Location: *
(70.5510°N, 28.6080°W)
Time: 06:40:49
(UTC+00:00)

Daily predictions for brighter satellites

Satellite Brightness Start Highest point End
(mag) Time Altitude Azimuth Time Altitude Azimuth Time Altitude Azimuth
Meteor 1-25 Rocket 4.3 15:36:56 10° NNW 15:42:50 80° ENE 15:48:37 10° SSE
Spot 4 4.3 15:38:29 10° NNE 15:43:08 52° NW 15:47:46 10° WSW
Cosmos 1869 3.8 15:40:05 10° S 15:43:58 48° E 15:47:54 10° NNE
Cosmos-2242 4.3 15:40:53 10° W 15:44:42 28° NW 15:48:32 10° NNE
Cosmos 2263 Rocket 2.5 15:40:08 10° SW 15:45:43 69° SSE 15:51:16 10° ENE
ERS-1 Rocket 3.9 15:41:52 10° NE 15:46:14 31° NNW 15:50:37 10° W
COSMOS 2455 4.2 15:41:08 10° SSW 15:46:27 33° SE 15:51:46 10° ENE
IRS-1C Rocket 4.1 15:41:14 10° SE 15:46:29 71° NE 15:51:46 10° NNW
Meteor 2-10 4.4 15:40:51 10° SW 15:46:36 73° WNW 15:52:17 10° NNE
CZ-2C R/B 3.0 15:42:14 10° ESE 15:47:01 39° NE 15:51:43 10° NNW
COSMOS 2487 4.0 15:43:41 10° NW 15:47:03 40° WSW 15:50:23 10° SSE
SPOT 5 3.8 15:43:21 10° NNE 15:47:17 29° NNW 15:51:05 10° W
Cosmos 1726 2.9 15:43:44 10° SW 15:47:20 42° NW 15:50:58 10° NNE
CZ-2C R/B 3.3 15:42:54 10° NNE 15:47:39 55° NW 15:52:34 10° SW
Cosmos 1300 3.2 15:44:00 10° SW 15:47:46 52° WNW 15:51:34 10° NNE
Cosmos 1666 4.2 15:45:43 10° NNW 15:48:21 17° NNE 15:50:58 10° ENE
Okean-O 3.0 15:44:44 10° ESE 15:48:56 43° NE 15:53:10 10° NNW
Meteor PRIRODA 3.9 15:46:01 10° SE 15:49:37 50° NE 15:53:13 10° NNW
GRACE-2 3.7 15:47:39 10° SSE 15:49:44 43° E 15:51:49 10° N
Meteor 1-31 Rocket 3.0 15:46:07 10° SE 15:49:55 51° NE 15:53:47 10° NNW
SMAP 3.9 15:46:31 10° E 15:50:31 29° NNE 15:54:31 10° NNW
Cosmos 1346 Rocket 3.2 15:46:37 10° S 15:50:36 57° ESE 15:54:38 10° NNE
Cosmos 2285 Rocket 4.1 15:44:25 10° WNW 15:50:46 87° NNE 15:57:07 10° ESE
Iridium 2 4.0 15:47:31 10° S 15:51:17 56° E 15:55:02 10° NNE
Resurs 1-4 Rocket 3.6 15:50:29 10° SSW 15:55:17 34° W 16:00:05 10° NNW
SPOT 1/Viking Rocket 4.4 15:50:56 10° NE 15:55:39 35° NNW 16:00:22 10° W
ERS-2 3.5 15:53:47 10° ENE 15:56:26 19° NNE 15:59:06 10° NNW
Cosmos 1680 Rocket 3.6 15:51:26 10° WNW 15:56:44 87° NE 16:02:02 10° SE
Meteor 1-14 Rocket 4.3 15:51:12 10° NNW 15:56:50 87° WSW 16:02:24 10° SSE
Cosmos 773 Rocket 4.4 15:51:56 10° NW 15:57:09 73° SW 16:02:23 10° SE
Meteor 1-11 Rocket 3.9 15:51:41 10° NNW 15:57:26 58° NE 16:03:02 10° SE
Nadezhda 4 Rocket 4.3 15:52:02 10° NNW 15:57:56 45° NE 16:03:49 10° ESE
SL-16 R/B 3.6 15:54:21 10° NNE 15:59:43 29° E 16:05:03 10° SE
Cosmos 2100 Rocket 4.4 15:54:30 10° S 16:00:42 56° E 16:06:57 10° NNE
ALOS 3.4 15:57:18 10° ENE 16:00:59 24° NNE 16:04:41 10° NW
SJ-6B 4.5 15:58:45 10° NE 16:01:32 18° N 16:04:16 10° NW
CZ-4B R/B 1.9 15:58:30 10° NNE 16:01:41 47° ESE 16:04:56 10° S
CZ-4B R/B 3.9 15:57:58 10° SE 16:02:02 59° ENE 16:05:55 10° NNW
Cosmos 2082 3.7 15:57:28 10° W 16:03:09 85° N 16:08:49 10° E
Cosmos 1954 Rocket 4.2 15:59:14 10° SW 16:04:25 75° SE 16:09:37 10° NE
Cosmos 407 Rocket 3.5 16:01:15 10° SW 16:06:25 90° NW 16:11:38 10° NE
CZ-2D R/B 3.8 16:01:34 10° SSW 16:06:26 32° W 16:11:21 10° NNW
Cosmos 1933 4.2 16:03:45 10° SSE 16:07:28 36° E 16:11:11 10° NNE
Cosmos 1908 4.5 16:04:08 10° WSW 16:07:34 29° NW 16:11:02 10° NNE
Cosmos 2151 Rocket 3.9 16:03:50 10° NNW 16:08:08 45° NE 16:12:27 10° SE
Cosmos 158 Rocket 4.1 16:03:00 10° WNW 16:08:19 62° N 16:13:29 10° E
SPOT 3 Rocket 4.3 16:06:03 10° ENE 16:10:31 30° NNE 16:14:59 10° NW
Cosmos 2061 Rocket 4.4 16:04:27 10° S 16:10:43 56° E 16:17:00 10° NNE
Cosmos 1340 3.5 16:07:22 10° S 16:10:56 38° E 16:14:31 10° NNE
Cosmos 1346 2.9 16:10:10 10° S 16:12:01 35° ESE 16:13:43 11° NE
Cosmos 2251 Rocket 3.7 16:07:22 10° W 16:12:43 62° N 16:18:02 10° ENE
Cosmos 1825 4.2 16:10:01 10° NNW 16:13:11 25° W 16:16:21 10° SW
CENTAUR R/B 3.9 16:07:18 10° SW 16:13:32 41° SSE 16:20:34 10° E
Cosmos 1455 Rocket 4.2 16:10:35 10° NNW 16:14:16 24° NNE 16:17:55 10° E
Cosmos 1782 Rocket 3.5 16:10:12 10° NNW 16:14:37 74° ENE 16:19:03 10° SSE
PSLV R/B 4.3 16:13:19 10° N 16:15:33 25° NW 16:17:47 10° WSW
PSLV R/B 4.2 16:12:20 10° SSE 16:16:26 76° WSW 16:20:37 10° NNW
ARIANE 5 R/B 4.2 16:12:04 10° SSW 16:16:37 31° W 16:21:13 10° NNW
Cosmos 1151 Rocket 3.1 16:12:33 10° SSW 16:16:51 74° WNW 16:21:08 10° NNE
CSL-04 Rocket 4.1 16:11:43 10° ESE 16:16:54 44° NE 16:22:08 10° NW
Okean 2 Rocket 3.2 16:12:25 10° NNW 16:16:58 63° ENE 16:21:27 10° SE
Cosmos 2227 Rocket 2.3 16:12:43 10° W 16:18:27 87° N 16:24:10 10° E
Cosmos 2219 3.3 16:13:34 10° WNW 16:19:14 83° SSW 16:24:53 10° ESE
H-2A R/B 3.1 16:15:13 10° NE 16:19:24 28° NNW 16:23:32 10° WNW
Cosmos 2221 3.6 16:16:09 10° WSW 16:20:06 34° NW 16:24:02 10° NNE
Cosmos 1140 Rocket 3.6 16:16:13 10° SW 16:21:23 81° SE 16:26:34 10° NE
Cosmos 405 3.0 16:18:13 10° NNW 16:21:51 82° ENE 16:25:27 10° SSE
Cosmos 1269 Rocket 4.1 16:17:15 10° WNW 16:22:34 61° N 16:27:52 10° E
FENGYUN 3A 4.4 16:18:33 10° E 16:23:13 31° NNE 16:27:53 10° NW
Cosmos 1743 3.9 16:20:19 10° NNW 16:23:23 22° NNE 16:26:28 10° E
Envisat 4.1 16:19:30 10° ENE 16:23:34 25° N 16:27:38 10° NW
Cosmos 1725 Rocket 4.4 16:17:42 10° SSE 16:23:35 47° E 16:29:28 10° NNE
Cosmos 1300 Rocket 3.9 16:20:08 10° NNW 16:24:20 43° NE 16:28:33 10° ESE
NOAA 6 4.0 16:19:33 10° SE 16:24:39 68° NE 16:29:46 10° NNW
Okean 1-7 4.5 16:21:49 10° SE 16:25:06 21° E 16:28:23 10° NNE
Cosmos 1190 Rocket 4.1 16:20:49 10° WSW 16:26:06 80° NNW 16:31:23 10° ENE
Cosmos 1821 Rocket 4.3 16:19:58 10° SW 16:26:17 65° WNW 16:32:32 10° NNE
Cosmos 923 Rocket 4.3 16:21:35 10° NW 16:26:49 73° SW 16:32:01 10° SE
PAYLOAD A 4.2 16:21:42 10° SE 16:26:51 60° NE 16:32:11 10° NNW
ALOS 2 3.2 16:22:46 10° NNE 16:27:02 50° NW 16:31:18 10° SW
Cosmos 2098 Rocket 3.9 16:22:15 10° SW 16:27:23 46° NW 16:31:27 10° NNE
CZ-4B R/B 3.4 16:23:16 10° SSE 16:27:27 68° WSW 16:31:52 10° NNW
ADEOS II 3.0 16:22:59 10° S 16:28:08 52° WSW 16:33:20 10° NNW
MSX 3.9 16:22:39 10° ESE 16:28:18 56° NE 16:33:56 10° NNW
Cosmos 1437 Rocket 2.8 16:25:07 10° NNW 16:28:55 54° NE 16:32:40 10° SE
Cosmos 2016 Rocket 4.2 16:23:11 10° S 16:29:12 58° E 16:35:11 10° NNE
Cosmos 1602 3.7 16:25:21 10° NNW 16:29:14 67° ENE 16:33:08 10° SE
Cosmos 1689 Rocket 2.2 16:26:39 10° NNE 16:29:41 69° ESE 16:32:47 10° SSW
Cosmos 1459 Rocket 4.1 16:24:09 10° S 16:30:15 68° ESE 16:36:20 10° NNE
Cosmos 2278 Rocket 3.1 16:25:07 10° SSW 16:30:21 39° SE 16:35:36 10° ENE
Resurs 01 Rocket 3.0 16:27:50 10° NE 16:31:09 21° N 16:34:26 10° NW
Cosmos 1655 Rocket 4.5 16:27:49 10° NNW 16:33:45 40° NE 16:39:43 10° ESE
Cosmos 1934 Rocket 4.2 16:28:15 10° SW 16:34:18 67° WNW 16:40:23 10° NNE
IDEFIX/ARIANE 42P 2.6 16:30:10 10° SE 16:35:18 63° NE 16:40:27 10° NNW
Cosmos 1092 Rocket 4.2 16:29:20 10° NNW 16:35:23 51° NE 16:41:28 10° SE
Cosmos 220 Rocket 4.0 16:31:45 10° WSW 16:36:07 85° NNW 16:40:25 10° ENE
H-2A R/B 4.3 16:33:50 10° ENE 16:36:15 17° NNE 16:38:39 10° NNW
ATLAS CENTAUR R/B 4.3 16:34:18 10° W 16:37:11 21° SSW 16:40:10 10° SSE
Cosmos 1844 4.3 16:32:01 10° SSW 16:37:39 54° SE 16:43:16 10° ENE
Cosmos 1707 Rocket 3.6 16:34:22 10° SSW 16:38:44 74° ESE 16:43:06 10° NNE
Cosmos 405 Rocket 4.4 16:36:25 10° SE 16:38:55 17° E 16:41:09 11° NE
SJ-6F 4.4 16:35:02 10° SSE 16:39:11 84° ENE 16:43:23 10° NNW
YAOGAN 1 3.4 16:37:08 10° E 16:40:55 30° NE 16:44:43 10° NNW
CZ-4B R/B 3.7 16:35:57 10° SSE 16:41:38 70° WSW 16:47:20 10° NNW
Terra 3.0 16:37:49 10° NNE 16:41:47 28° NNW 16:45:51 10° W
Cosmos 1802 Rocket 4.1 16:35:56 10° S 16:42:04 70° ESE 16:48:19 10° NNE
Meteor 2-20 Rocket 4.5 16:36:07 10° NNW 16:42:12 63° NE 16:48:15 10° SE
CZ-4C R/B 3.2 16:38:42 10° NNE 16:42:15 71° WNW 16:45:44 10° SW
Cosmos 1975 3.6 16:39:20 10° NNW 16:42:56 30° NE 16:46:31 10° ESE
Cosmos 2112 Rocket 4.3 16:38:14 10° NW 16:43:29 75° SW 16:48:46 10° SE
Cosmos 1048 Rocket 4.1 16:38:35 10° WNW 16:43:56 66° NNE 16:49:20 10° E
Cosmos 1844 Rocket 3.1 16:38:29 10° SW 16:44:00 61° SE 16:49:31 10° ENE
Meteor 1-5 Rocket 4.1 16:39:07 10° NNW 16:44:26 68° NE 16:49:46 10° SE
Cosmos 2173 Rocket 4.1 16:39:20 10° S 16:45:37 77° ESE 16:52:00 10° NNE
Cosmos 494 Rocket 4.1 16:40:36 10° WNW 16:45:50 60° N 16:51:06 10° E
Cosmos 2297 Rocket 2.3 16:40:13 10° WNW 16:45:56 90° SSW 16:51:38 10° ESE
Ariane Rocket 3.3 16:41:09 10° ESE 16:45:58 46° NE 16:50:49 10° NNW
Cosmos 1733 Rocket 4.4 16:42:04 10° NNW 16:46:17 42° W 16:50:30 10° SSW
Cosmos 1633 3.1 16:45:48 10° NNW 16:49:28 63° WSW 16:53:06 10° S
Cosmos 389 Rocket 3.3 16:46:41 10° NNW 16:49:53 29° NE 16:53:03 10° ESE
Cosmos 1271 Rocket 3.5 16:46:48 10° NNW 16:50:08 28° NE 16:53:28 10° E
Cosmos 1328 Rocket 4.3 16:46:43 10° SW 16:50:55 44° NW 16:55:06 10° NNE
Cosmos 1500 3.7 16:48:55 10° NNW 16:52:31 37° NE 16:56:06 10° ESE
Okean 1 Rocket 3.3 16:48:25 10° NNW 16:52:46 47° NE 16:57:07 10° SE
Cosmos 1242 Rocket 4.3 16:51:38 10° NW 16:53:48 15° N 16:55:13 13° NNE
Cosmos 2026 Rocket 4.3 16:47:43 10° NNW 16:53:56 49° NE 17:00:08 10° ESE
Cosmos 2266 Rocket 4.5 16:49:09 10° NNW 16:54:41 35° NNE 17:00:11 10° E
Cosmos 2227 4.3 16:50:03 10° W 16:55:52 86° N 17:01:41 10° E
Cosmos 1703 Rocket 4.3 16:53:55 10° SSE 16:57:53 34° E 17:01:28 12° NNE
Cosmos 1023 Rocket 4.5 16:53:58 10° WSW 16:59:07 82° NNW 17:03:54 12° ENE
CORIOLIS 4.4 16:54:49 10° ESE 17:00:01 49° NE 17:05:13 10° NNW
Cosmos 1455 3.0 16:56:50 10° SW 17:00:28 43° NW 17:03:57 11° NNE
PSLV R/B 4.3 16:57:52 12° NNE 17:01:29 47° ESE 17:05:26 10° S
ARGOS 4.2 16:59:53 12° NE 17:03:54 28° N 17:08:22 10° WNW
Cosmos 1606 3.6 17:00:40 10° SSE 17:04:07 32° E 17:06:58 14° NE
Cosmos 1605 Rocket 4.4 16:58:33 10° SW 17:04:54 65° WNW 17:11:17 10° NNE
Cosmos 1536 2.8 17:01:24 10° NNW 17:05:27 70° ENE 17:09:28 10° SSE
H-2A R/B 3.3 17:01:46 12° NNE 17:05:29 32° NNW 17:09:31 10° W
Cosmos 614 Rocket 4.0 17:00:36 10° WSW 17:05:50 81° NNW 17:10:32 13° ENE
Cosmos 2233 Rocket 4.2 17:00:20 10° S 17:06:17 54° E 17:12:15 10° NNE
Okean O Rocket 2.7 17:03:15 10° S 17:07:36 49° WSW 17:11:59 10° NNW
Cosmos 676 Rocket 4.0 17:02:35 10° WSW 17:07:49 75° NNW 17:12:34 13° ENE
Cosmos 1515 Rocket 4.4 17:03:36 10° WSW 17:07:52 43° NW 17:11:57 11° NNE
CZ-4 R/B 1.9 17:04:14 10° ESE 17:07:53 36° NE 17:11:36 10° NNW
Cosmos 1943 Rocket 4.0 17:05:09 10° SE 17:08:00 14° E 17:10:39 11° ENE
Landsat 5 3.8 17:04:48 11° NNE 17:09:05 76° WNW 17:13:39 10° SW
Cosmos 1782 3.6 17:05:56 10° SSE 17:09:34 35° E 17:12:33 14° NNE
MOZ.5/SAFIR/RUBIN 5/SL-8 4.5 17:06:13 12° NNE 17:10:19 38° E 17:14:45 10° SSE
Cosmos 1850 Rocket 4.0 17:05:21 10° SW 17:10:35 88° SSE 17:15:16 13° NE
Cosmos 1484 Rocket 3.2 17:07:44 10° ESE 17:11:33 41° NE 17:15:21 10° NNW
SJ-12 4.0 17:08:34 10° SE 17:12:37 56° NE 17:16:40 10° NNW
Meteor 2-10 Rocket 3.8 17:07:37 10° SSW 17:13:25 87° ESE 17:18:59 12° NNE
GP-B 4.0 17:10:00 10° N 17:14:19 49° WNW 17:18:36 10° SSW
Meteor 2-12 Rocket 4.5 17:08:33 10° S 17:14:33 68° ESE 17:20:35 10° NNE
Iridium 4 Rocket 3.9 17:10:42 10° SW 17:14:47 45° WNW 17:18:49 10° N
SAR-Lupe-2 3.6 17:12:20 14° NNE 17:15:26 70° ESE 17:19:02 10° SSW
Cosmos 2228 Rocket 4.1 17:12:19 10° WSW 17:16:30 39° NW 17:20:21 12° NNE
Cosmos 1441 Rocket 4.4 17:13:23 10° SSE 17:16:30 25° E 17:18:35 16° NE
Cosmos 1953 4.1 17:14:08 10° NW 17:16:39 16° N 17:18:08 13° NNE
Meteor 1-12 Rocket 4.3 17:11:10 10° NNW 17:16:45 55° NE 17:22:20 10° SE
Meteor 1-4 Rocket 2.6 17:13:06 10° NNW 17:16:53 64° ENE 17:20:35 10° SE
Cosmos 1939 Rocket 4.4 17:15:59 15° NE 17:17:10 17° NNE 17:19:39 10° NNW
IRAS Rocket 4.2 17:11:49 10° SE 17:17:17 71° NE 17:22:48 10° NNW
Cosmos 1437 2.7 17:14:36 10° SSW 17:17:48 78° ESE 17:20:18 16° NNE
ATLAS 3B R/B 3.8 17:11:52 10° W 17:18:28 47° SSW 17:24:46 10° SE
Meteor 1-26 Rocket 4.3 17:14:48 10° S 17:20:16 64° ESE 17:25:28 12° NNE
Cosmos 1869 3.9 17:16:20 10° SW 17:20:18 53° WNW 17:23:56 12° NNE
Spot 2 Rocket 4.5 17:17:41 12° ENE 17:21:35 28° NNE 17:25:52 10° NW
Aureole 1 Rocket 3.6 17:17:39 10° NW 17:22:01 79° SW 17:27:50 10° SE
Cosmos 1464 Rocket 4.5 17:16:22 10° SSE 17:22:11 42° E 17:28:05 10° NNE
Cosmos 2058 Rocket 4.4 17:20:01 10° NNW 17:23:18 20° NNE 17:25:12 16° NE
Cosmos 1726 4.0 17:20:42 10° WNW 17:23:32 20° NNW 17:25:59 12° NNE
ERS-1 Rocket 4.2 17:20:56 14° NE 17:24:02 25° N 17:28:06 10° NW
Cosmos 1300 4.4 17:21:11 10° W 17:24:16 22° NNW 17:26:58 12° NNE
SPOT 5 4.1 17:21:54 14° NE 17:24:25 22° N 17:27:49 10° NW
Meteor 1-31 Rocket 3.7 17:20:38 10° S 17:24:28 52° WSW 17:28:21 10° NNW
CZ-2C R/B 2.5 17:19:44 10° SSE 17:24:57 82° ENE 17:30:05 10° NNW
Cosmos 1666 3.3 17:21:34 10° NNW 17:25:04 33° NE 17:28:32 10° ESE
Okean-O 2.8 17:20:51 10° SSE 17:25:19 77° WSW 17:29:49 10° NNW
CZ-2C R/B 4.1 17:23:22 13° NNE 17:26:57 29° NNW 17:31:13 10° W
Cosmos 1346 Rocket 3.5 17:23:13 10° SW 17:27:10 48° NW 17:30:33 14° NNE
SMAP 3.1 17:22:44 10° SE 17:27:17 55° NE 17:31:52 10° NNW
SL-08 R/B 3.5 17:23:01 13° NNE 17:27:26 67° ESE 17:32:22 10° SSW
ERS-2 2.8 17:26:03 10° ESE 17:29:23 33° NE 17:32:45 10° NNW
Cosmos 2263 Rocket 2.2 17:24:02 10° W 17:29:41 87° N 17:35:09 11° E
Cosmos 2242 Rocket 3.6 17:26:32 10° SSW 17:31:00 89° E 17:34:56 13° NNE
Cosmos 1486 Rocket 4.3 17:25:54 10° SSW 17:31:07 61° SE 17:35:20 16° NE
COSMOS 2455 3.4 17:25:45 10° SW 17:31:37 56° SSE 17:37:20 11° E
Cosmos 1812 4.4 17:29:25 10° ESE 17:31:51 16° ENE 17:32:16 16° ENE
Cosmos 1862 Rocket 3.6 17:27:44 10° SSW 17:32:15 81° ESE 17:36:12 13° NNE
YAOGAN 6 4.4 17:32:39 14° NNE 17:32:47 14° NNE 17:34:43 10° NNW
CSL-04 Debris 4.1 17:28:19 10° SE 17:33:41 69° NE 17:39:05 10° NNW
CZ-4B R/B 2.2 17:31:45 14° NNE 17:34:20 44° NW 17:37:32 10° SW
SJ-6B 4.0 17:32:41 14° ENE 17:35:12 24° NNE 17:38:33 10° NNW
ALOS 2.7 17:33:16 10° ESE 17:37:36 38° NE 17:41:56 10° NNW
MOS 1 4.4 17:33:39 10° ESE 17:39:11 54° NE 17:44:43 10° NNW
Cosmos 1741 Rocket 4.1 17:33:53 10° WSW 17:39:14 81° NNW 17:43:24 17° ENE
AQUARIUS 4.2 17:36:27 10° SE 17:40:54 61° NE 17:45:22 10° NNW
Meteor 1-11 Rocket 4.3 17:35:21 10° NNW 17:41:05 64° WSW 17:46:39 10° S
Cosmos 1346 3.7 17:39:58 10° WSW 17:41:42 25° NW 17:42:31 19° N
Nadezhda 4 Rocket 4.0 17:37:40 10° NNW 17:43:50 87° WSW 17:50:01 10° SSE
Cosmos 1933 3.5 17:39:51 10° SSW 17:43:52 69° WNW 17:47:16 14° NNE
SL-16 R/B 2.6 17:38:41 12° NNE 17:44:29 66° ESE 17:50:41 10° SSW
Cosmos 2100 Rocket 4.3 17:39:51 10° SW 17:46:13 68° WNW 17:52:20 11° NNE
Cosmos 2151 Rocket 4.0 17:42:05 10° NNW 17:46:31 67° WSW 17:50:59 10° S
Cosmos 1340 3.0 17:42:44 10° SW 17:46:32 63° WNW 17:49:28 16° NNE
Cosmos 1954 Rocket 4.1 17:41:29 10° WSW 17:46:41 67° NNW 17:50:33 18° ENE
Cosmos 2082 3.9 17:41:43 10° WNW 17:47:23 76° SSW 17:53:00 10° SE
Cosmos 407 Rocket 3.6 17:43:40 10° W 17:48:47 61° N 17:52:39 18° ENE
SPOT 3 Rocket 3.7 17:44:14 10° ESE 17:49:13 49° NE 17:54:13 10° NNW
Cosmos 158 Rocket 4.0 17:44:58 10° NW 17:50:17 90° S 17:55:28 10° SE
Cosmos 2369 Rocket 3.4 17:46:43 10° SSE 17:51:12 25° ESE 17:54:05 17° ENE
IRS-1A Rocket 4.2 17:45:50 10° SE 17:51:20 67° NE 17:56:50 10° NNW
UNK 3.7 17:49:06 15° NNE 17:52:59 77° ESE 17:57:36 10° SSW
Cosmos 1455 Rocket 3.3 17:48:45 10° NNW 17:53:06 47° NE 17:57:25 10° SE
Okean 2 Rocket 4.3 17:50:41 10° NNW 17:55:02 45° W 17:59:20 10° S
Cosmos 1151 Rocket 4.4 17:51:15 10° WSW 17:55:03 30° NW 17:58:11 14° NNE
Cosmos 2251 Rocket 3.6 17:50:13 10° WNW 17:55:35 66° NNE 18:00:52 10° E
Cosmos 2061 Rocket 4.3 17:50:00 10° SW 17:56:26 69° WNW 18:02:33 12° NNE
Cosmos 1544 Rocket 3.7 17:52:32 10° NNW 17:56:52 50° NE 18:01:09 10° SE
CSL-04 Rocket 3.7 17:51:26 10° SSE 17:56:56 85° ENE 18:02:32 10° NNW
H-2A R/B 3.2 17:55:32 18° NE 17:57:47 24° N 18:01:44 10° NW
Cosmos 2221 4.3 17:55:42 10° WNW 17:58:53 20° NNW 18:01:04 14° NNE
Cosmos 1743 2.8 17:56:15 10° NNW 18:00:02 50° ENE 18:03:49 10° SE
Cosmos 1689 Rocket 3.6 17:59:20 15° N 18:01:22 31° NW 18:04:09 10° WSW
Envisat 3.7 17:58:18 16° E 18:01:35 32° NNE 18:06:04 10° NNW
Okean 1-7 3.1 17:57:42 10° S 18:02:03 62° ESE 18:05:16 18° NNE
Cosmos 1300 Rocket 3.9 17:58:03 10° NNW 18:02:25 70° WSW 18:06:48 10° S
Cosmos 2227 Rocket 2.6 17:56:52 10° WNW 18:02:31 67° SW 18:08:09 10° SE
ALOS 2 4.1 18:00:00 14° NNE 18:02:45 26° NNW 18:06:23 10° W
FENGYUN 3A 3.8 17:57:34 10° ESE 18:02:46 52° NE 18:07:59 10° NNW
Cosmos 2219 4.3 17:57:44 10° WNW 18:03:09 49° SW 18:08:31 10° SSE
CENTAUR R/B 3.6 17:56:39 10° WSW 18:03:19 51° S 18:10:52 10° ESE
Cosmos 1140 Rocket 3.6 17:58:19 10° W 18:03:28 64° NNW 18:06:56 21° ENE
Cosmos 1269 Rocket 4.0 17:59:51 10° WNW 18:05:14 86° NE 18:10:35 10° ESE
Cosmos 1437 Rocket 3.8 18:01:32 10° NNW 18:05:14 46° WSW 18:08:53 10° S
Cosmos 1354 Rocket 4.2 18:00:29 10° SSW 18:05:39 61° SE 18:09:08 21° NE
Resurs 01 Rocket 2.6 18:04:57 21° ENE 18:06:39 28° NNE 18:10:26 10° NNW
Cosmos 1190 Rocket 4.2 18:03:26 10° W 18:08:39 60° N 18:12:07 21° ENE
Cosmos 1725 Rocket 4.1 18:02:37 10° SSW 18:08:51 77° WNW 18:14:40 12° NNE
ADEOS II 4.5 18:05:10 10° SW 18:09:04 21° WNW 18:12:59 10° NNW
H-2A R/B 3.5 18:08:19 23° E 18:09:41 30° NE 18:12:58 10° NNW
MSX 4.2 18:04:17 10° SSE 18:10:04 70° WSW 18:15:52 10° NNW
Meteor 2-9 Rocket 4.2 18:06:41 10° NNW 18:12:24 61° NE 18:17:55 10° SE
Cosmos 1891 Rocket 4.5 18:07:41 10° S 18:13:36 59° E 18:19:15 12° NNE
Cosmos 2278 Rocket 2.3 18:08:19 10° SW 18:14:00 74° SSE 18:17:50 21° ENE
Cosmos 405 Rocket 2.7 18:10:39 10° S 18:14:19 58° ESE 18:16:20 25° NE
METEOR-M 4.1 18:09:02 10° SE 18:14:21 68° NE 18:19:42 10° NNW
Cosmos 2016 Rocket 4.3 18:08:31 10° SW 18:14:38 64° WNW 18:20:13 13° NNE
Cosmos 220 Rocket 4.2 18:10:34 10° W 18:14:50 55° N 18:17:08 25° ENE
IDEFIX/ARIANE 42P 3.3 18:10:01 10° S 18:15:07 55° WSW 18:20:15 10° NNW
Cosmos 1459 Rocket 4.5 18:09:45 10° SW 18:15:48 56° NW 18:21:12 13° NNE
YAOGAN 1 2.5 18:12:17 10° SE 18:16:36 66° ENE 18:20:56 10° NNW
Terra 3.3 18:16:42 18° NNE 18:18:32 23° N 18:22:13 10° NW
NOAA 12 4.1 18:14:22 10° SE 18:19:33 59° NE 18:24:43 10° NNW
Cosmos 1975 2.7 18:15:57 10° NNW 18:20:00 79° ENE 18:24:03 10° SSE
Cosmos 1655 Rocket 4.0 18:13:58 10° NNW 18:20:21 76° ENE 18:26:45 10° SSE
Cosmos 1092 Rocket 4.2 18:15:01 10° NNW 18:21:13 77° WSW 18:27:28 10° S
Cosmos 1844 3.8 18:15:48 10° WSW 18:21:38 86° SSE 18:25:29 22° ENE
Cosmos 2221 Rocket 3.5 18:18:25 10° SSW 18:22:54 75° ESE 18:26:09 19° NNE
Helios 1A 4.4 18:22:50 21° NNE 18:23:26 21° NNE 18:26:40 10° NNW
Ariane Rocket 3.1 18:19:42 10° SSE 18:24:48 82° WSW 18:29:55 10° NNW
Cosmos 389 Rocket 2.4 18:21:35 10° NNW 18:25:11 84° ENE 18:28:44 10° SSE
Cosmos 1048 Rocket 4.2 18:20:54 10° NW 18:26:17 80° SW 18:31:42 10° SE
Cosmos 2228 4.0 18:22:35 10° NNW 18:26:24 27° NE 18:27:03 26° NE
Cosmos 1271 Rocket 2.5 18:22:55 10° NNW 18:26:43 75° ENE 18:30:30 10° SSE
Cosmos 1844 Rocket 2.6 18:22:12 10° WSW 18:27:50 90° N 18:31:24 24° ENE
Cosmos 494 Rocket 3.9 18:22:49 10° WNW 18:28:08 79° NNE 18:33:27 10° ESE
Cosmos 1500 3.4 18:24:38 10° NNW 18:28:28 71° WSW 18:32:16 10° S
Cosmos 2297 Rocket 2.8 18:24:19 10° WNW 18:29:54 60° SW 18:35:29 10° SE
Cosmos 1242 Rocket 4.1 18:27:14 10° NNW 18:29:20 20° NNE 18:29:20 20° NNE
Cosmos 1634 Rocket 4.3 18:24:46 10° SSE 18:30:34 42° E 18:36:10 11° NNE
Okean 1 Rocket 3.6 18:26:28 10° NNW 18:30:54 63° WSW 18:35:20 10° S
Cosmos 2297 3.9 18:27:23 10° SW 18:33:06 64° SE 18:36:29 25° ENE
Cosmos 1703 Rocket 3.6 18:31:09 10° SSW 18:35:33 78° WNW 18:38:38 19° NNE
Cosmos 1455 4.1 18:34:11 10° WNW 18:37:03 20° NNW 18:38:55 15° N
PSLV R/B 4.4 18:34:18 19° NNE 18:37:03 58° NW 18:41:04 10° SW
Meteor 1-15 Rocket 4.3 18:32:21 10° NNW 18:38:14 61° NE 18:44:08 10° SE
Cosmos 1606 2.8 18:35:52 10° SSW 18:39:41 73° WNW 18:42:02 23° NNE
Cosmos 2026 Rocket 4.1 18:33:20 10° NNW 18:39:47 82° WSW 18:46:11 10° SSE
CORIOLIS 4.3 18:34:45 10° SSE 18:40:11 79° WSW 18:45:38 10° NNW
Cosmos 2227 4.3 18:34:25 10° WNW 18:40:14 83° SSW 18:45:24 13° ESE
Cosmos 1975 Rocket 4.0 18:36:33 10° SE 18:40:22 28° E 18:40:22 28° E
H-2A R/B 3.8 18:38:53 18° NNE 18:40:36 22° N 18:44:06 10° WNW
Meteor 1-27 Rocket 3.8 18:34:57 10° S 18:40:46 67° ESE 18:45:07 18° NNE
Cosmos 2266 Rocket 3.9 18:35:01 10° NNW 18:41:03 65° ENE 18:47:06 10° SE
Cosmos 1536 4.5 18:38:02 10° NNW 18:41:45 36° W 18:45:25 10° SSW
CZ-4 R/B 1.4 18:38:47 10° SSE 18:42:44 83° WSW 18:46:48 10° NNW
ARGOS 4.0 18:41:25 25° NE 18:43:06 31° NNE 18:47:45 10° NW
Okean O Rocket 4.4 18:41:58 10° WSW 18:45:00 18° W 18:48:04 10° NW
Cosmos 1782 3.0 18:41:47 10° SSW 18:45:45 71° WNW 18:48:11 23° NNE
Cosmos 1484 Rocket 3.2 18:41:53 10° SSE 18:45:55 69° WSW 18:49:57 10° NNW
Cosmos 614 Rocket 4.1 18:42:46 10° W 18:47:55 60° N 18:50:24 30° ENE
MOZ.5/SAFIR/RUBIN 5/SL-8 3.9 18:44:54 19° NNE 18:48:19 81° WNW 18:53:07 10° SSW
Cosmos 1943 Rocket 3.0 18:45:16 10° S 18:50:18 34° ESE 18:52:10 27° E
Cosmos 676 Rocket 4.1 18:45:15 10° W 18:50:26 59° N 18:52:51 30° ENE
SL-24 R/B 4.4 18:45:13 10° N 18:50:32 86° E 18:55:28 10° S
Cosmos 1939 Rocket 4.0 18:51:53 25° NNE 18:51:53 25° NNE 18:54:29 10° NNW
Cosmos 2233 Rocket 4.2 18:45:29 10° SW 18:51:37 68° WNW 18:57:02 14° NNE
Cosmos 1437 4.2 18:48:49 10° WSW 18:51:43 30° NW 18:53:03 22° N
Meteor 1-4 Rocket 4.2 18:48:23 10° NNW 18:51:54 37° W 18:55:22 10° SSW
Cosmos 1441 Rocket 3.0 18:48:18 10° SSW 18:52:06 85° ESE 18:53:40 34° NNE
Cosmos 2034 Rocket 3.9 18:46:43 10° S 18:52:59 77° ESE 18:58:38 13° NNE
Cosmos 1850 Rocket 4.2 18:47:52 10° W 18:53:04 62° N 18:55:34 30° ENE
Cosmos 1674 Rocket 3.6 18:49:55 10° S 18:54:09 55° E 18:55:56 31° NE
Cosmos 1953 3.9 18:51:25 10° NNW 18:53:51 20° NNE 18:53:51 20° NNE
Intercosmos 25 2.8 18:51:29 10° SSW 18:54:43 87° ESE 18:55:53 37° NNE
CZ-2D R/B 3.9 18:55:08 34° NNE 18:55:08 34° NNE 18:58:18 10° NNW
MONITOR-E 4.0 18:52:37 10° SSE 18:55:41 71° ENE 18:58:47 10° NNW
Cosmos 1503 Rocket 3.9 18:51:01 10° SW 18:56:14 86° SE 18:58:46 31° NE
Meteor 2-6 Rocket 4.3 18:50:27 10° SSW 18:56:19 89° WNW 19:00:56 18° NNE
Spot 2 Rocket 3.9 18:57:53 30° E 18:59:45 43° NE 19:04:33 10° NNW
Cosmos 1726 4.3 18:58:03 10° NW 19:00:13 14° N 19:00:33 14° N
Cosmos 1666 2.7 18:57:18 10° NNW 19:01:07 82° WSW 19:04:54 10° SSE
SPOT 5 3.9 19:01:07 24° NNE 19:01:29 25° NNE 19:05:07 10° NW
Cosmos 1378 Rocket 3.8 18:57:21 10° S 19:01:38 47° E 19:02:54 36° NE
ERS-1 Rocket 3.8 19:00:56 29° NE 19:01:49 30° NNE 19:06:11 10° NW
Cosmos 2058 Rocket 3.7 18:58:28 10° NNW 19:02:29 35° NE 19:02:29 35° NE
ERS-2 2.1 18:59:09 10° SSE 19:02:51 88° WSW 19:06:34 10° NNW
CZ-2C R/B 3.9 18:58:46 10° SSW 19:03:39 40° W 19:08:29 10° NNW
SMAP 3.7 19:00:08 10° S 19:04:44 58° WSW 19:09:23 10° NNW
SL-08 R/B 4.0 19:02:00 19° NNE 19:05:18 52° NW 19:10:04 10° WSW
YAOGAN 6 4.5 19:07:05 17° N 19:07:05 17° N 19:08:21 10° NNW
Cosmos 968 Rocket 3.5 19:00:20 10° SW 19:05:35 70° SE 19:07:55 34° ENE
CZ-2C R/B 4.3 19:04:26 20° NNE 19:05:49 23° N 19:09:39 10° NW
CZ-4B R/B 3.5 19:05:14 16° N 19:06:24 18° NNW 19:08:46 10° WNW
Cosmos 1812 2.9 19:03:11 10° S 19:06:58 51° E 19:07:24 48° ENE
Cosmos 1464 Rocket 4.0 19:01:01 10° SSW 19:07:18 85° WNW 19:13:02 13° NNE
ATLAS 3B R/B 4.4 19:02:09 10° W 19:08:03 32° SW 19:13:44 10° SSE
Meteor 1-10 Rocket 4.4 19:02:11 10° SSW 19:08:09 81° WNW 19:12:38 19° NNE
SJ-6B 3.1 19:08:20 41° E 19:09:17 50° NE 19:13:17 10° NNW
Geosat 4.0 19:07:25 34° ENE 19:09:36 73° SE 19:14:39 10° SW
Cosmos 1244 Rocket 4.5 19:03:45 10° NNW 19:09:51 59° NE 19:15:56 10° SE
USA 161 3.1 19:12:23 23° S 19:12:23 23° S 19:13:40 10° S
ATLAS 2AS CENTAUR R/B 4.4 19:07:06 10° SSE 19:11:57 18° ESE 19:11:57 18° ESE
Cosmos 1486 Rocket 4.1 19:07:58 10° WSW 19:13:18 75° NNW 19:15:40 34° NE
Cosmos 1606 Rocket 3.8 19:09:06 10° NNW 19:13:24 46° NE 19:13:53 44° ENE
Cosmos 2263 Rocket 2.1 19:08:09 10° WNW 19:13:47 87° SSW 19:16:51 28° ESE
ALOS 2.2 19:10:06 10° SSE 19:14:48 88° ENE 19:19:31 10° NNW
Resurs 1-3 3.9 19:15:41 42° NE 19:15:58 42° NE 19:20:08 10° NNW
Timation 1 Rocket 4.3 19:09:57 10° WSW 19:16:00 84° S 19:18:51 34° E
Okean 3 3.4 19:12:51 10° S 19:17:01 62° ESE 19:18:10 44° NE
COSMOS 2455 3.1 19:11:14 10° W 19:17:13 65° S 19:20:29 28° ESE
MOS 1 4.5 19:14:48 10° SSE 19:20:31 74° WSW 19:26:14 10° NNW
USA 229 DEB 4.4 19:15:17 10° SW 19:21:37 41° SSE 19:24:42 27° ESE
USA 229 4.4 19:15:24 10° SW 19:21:43 40° SSE 19:24:48 27° ESE
Cosmos 1741 Rocket 4.2 19:16:34 10° W 19:21:52 61° N 19:23:45 38° ENE
Cosmos 1340 4.4 19:19:35 10° W 19:22:52 26° NNW 19:24:17 21° N
Cosmos 2142 Rocket 4.4 19:18:58 10° S 19:25:02 62° E 19:30:00 16° NNE
SME Rocket 3.8 19:26:58 39° NE 19:27:25 40° NNE 19:32:30 10° NW
SL-16 R/B 2.9 19:23:46 20° NNE 19:28:14 63° NW 19:34:23 10° SW
SPOT 3 Rocket 3.7 19:23:20 10° SSE 19:28:33 76° WSW 19:33:45 10° NNW
Cosmos 1954 Rocket 4.1 19:24:07 10° WNW 19:29:17 60° N 19:30:48 42° ENE
Cosmos 1455 Rocket 3.5 19:26:44 10° NNW 19:31:11 63° WSW 19:35:34 10° S
Cosmos 407 Rocket 3.5 19:26:12 10° WNW 19:31:22 64° NNE 19:32:51 44° ENE
Cosmos 2369 Rocket 2.4 19:28:55 10° SSW 19:34:21 54° SE 19:35:52 41° E
Cosmos 1544 Rocket 4.2 19:30:31 10° NNW 19:34:53 58° WSW 19:39:11 10° S
Meteor 1-22 Rocket 4.4 19:29:37 10° NNW 19:35:42 59° NE 19:38:26 32° ESE
Cosmos 1743 3.7 19:32:10 10° NNW 19:35:56 49° W 19:39:41 10° S
FengYun 1-2 T 4.2 19:30:30 10° SSE 19:36:11 86° ENE 19:41:54 10° NNW
H-2A R/B 2.8 19:36:10 32° NNE 19:36:15 32° NNE 19:40:37 10° NNW
Cosmos 2221 4.4 19:35:04 10° NW 19:37:55 18° N 19:37:55 18° N
ALOS 2 4.4 19:37:23 19° N 19:38:04 20° N 19:41:14 10° NW
Cosmos 2251 Rocket 3.6 19:32:46 10° NW 19:38:09 79° SW 19:41:23 24° SE
Cosmos 2292 Rocket 4.2 19:32:12 10° NNW 19:38:16 49° NE 19:39:01 46° ENE
Cosmos 1726 Rocket 3.6 19:34:37 10° NNW 19:38:53 54° NE 19:38:53 54° NE
SL-08 R/B 4.5 19:32:44 10° NNW 19:39:03 62° NE 19:43:05 23° SE
Okean 1-7 3.9 19:35:36 10° SW 19:39:52 47° NW 19:42:09 24° N
Cosmos 2263 4.5 19:34:22 10° SSW 19:39:52 50° SE 19:41:12 42° E
Envisat 3.0 19:38:30 41° ESE 19:40:03 60° NE 19:45:05 10° NNW
Cosmos 2279 Rocket 4.0 19:35:49 10° S 19:41:58 60° E 19:46:59 16° NNE
Resurs 01 Rocket 1.7 19:42:32 55° NE 19:42:35 55° NE 19:46:57 10° NNW
FENGYUN 3A 3.9 19:37:37 10° SSE 19:43:01 72° WSW 19:48:25 10° NNW
H-2A R/B 2.5 19:43:31 80° ESE 19:43:40 84° ENE 19:47:25 10° NNW
Cosmos 1745 Rocket 4.0 19:37:52 10° NNW 19:43:58 58° NE 19:46:39 33° ESE
Cosmos 1140 Rocket 3.6 19:40:43 10° WNW 19:45:51 61° N 19:46:57 49° ENE
Cosmos 2227 Rocket 3.8 19:40:56 10° WNW 19:45:59 34° WSW 19:51:02 10° S
Cosmos 1354 Rocket 4.0 19:42:38 10° WSW 19:47:55 74° NNW 19:49:30 45° NE
CSL-04 DEB 4.5 19:49:10 64° ENE 19:49:14 64° NE 19:53:35 10° NNW
Cosmos 405 Rocket 3.6 19:46:56 10° WSW 19:50:32 44° NW 19:51:31 35° N
Cosmos 1190 Rocket 4.0 19:46:01 10° WNW 19:51:17 69° NNE 19:52:23 53° E
Cosmos 1777 Rocket 3.9 19:46:42 10° SW 19:51:56 72° SE 19:53:05 53° ENE
YAOGAN 1 3.8 19:48:48 10° S 19:52:58 44° W 19:57:09 10° NNW
CENTAUR R/B 3.8 19:46:30 10° W 19:53:14 44° SSW 19:59:20 16° SE
Cosmos 220 Rocket 4.0 19:49:27 10° WNW 19:53:44 59° NNE 19:53:49 59° NNE
Terra 3.1 19:55:35 27° NNE 19:55:35 27° NNE 19:59:13 10° NW
Cosmos 2180 Rocket 4.5 19:49:31 10° S 19:55:48 62° E 20:01:19 14° NNE
Nadezhda 2 Rocket 4.4 19:50:30 10° NNW 19:56:45 90° NE 20:03:06 10° SSE
Cosmos 2278 Rocket 2.1 19:52:26 10° W 19:58:10 86° N 19:59:41 51° E
Helios 1A 4.3 19:59:29 29° N 19:59:29 29° N 20:02:05 10° NNW
Okean 1 3.9 19:54:58 10° S 19:57:52 45° S 19:57:52 45° S
Cosmos 1898 Rocket 4.0 19:56:27 10° S 20:00:44 40° SE 20:00:44 40° SE
Cosmos 2228 3.4 20:00:22 10° NNW 20:03:55 50° N 20:03:55 50° N
Cosmos 1656 Rocket 4.1 20:00:35 10° SSW 20:05:23 41° SE 20:05:23 41° SE
Cosmos 1844 3.7 20:00:08 10° W 20:05:59 88° N 20:07:23 54° E
MetOp-B 4.5 20:07:25 45° NE 20:07:26 45° NE 20:12:32 10° NNW
Cosmos 1844 Rocket 2.6 20:06:17 10° W 20:11:56 89° NNE 20:13:04 59° E
Cosmos 2297 Rocket 4.1 20:08:25 10° WNW 20:13:13 29° WSW 20:18:01 10° S
H-2A R/B 3.8 20:16:00 22° N 20:16:00 22° N 20:19:05 10° NW
Cosmos 1634 Rocket 4.0 20:09:23 10° SSW 20:15:40 85° WNW 20:20:50 16° NNE
Cosmos 1606 4.5 20:12:44 10° W 20:16:04 27° NW 20:17:06 24° NNW
Cosmos 2297 3.6 20:11:27 10° WSW 20:17:15 88° NNW 20:18:24 60° ENE
Cosmos 1937 Rocket 4.4 20:12:58 10° S 20:16:14 33° SSE 20:16:14 33° SSE
Cosmos 1975 Rocket 3.0 20:13:18 10° SSW 20:17:33 77° SSE 20:17:33 77° SSE
CZ-4 R/B 3.6 20:15:01 10° SSW 20:18:21 26° W 20:21:47 10° NNW
Meteor 1-18 Rocket 4.1 20:14:25 10° SSW 20:20:04 84° ESE 20:22:14 40° NNE
ARGOS 3.4 20:22:55 48° NNE 20:22:55 48° NNE 20:27:48 10° NNW
Cosmos 1023 Rocket 4.4 20:18:32 10° WNW 20:23:39 67° NNE 20:23:51 66° NE
Meteor 1-13 Rocket 4.3 20:18:26 10° S 20:23:26 56° SE 20:23:26 56° SE
Meteor 1-27 Rocket 4.3 20:18:35 10° SW 20:24:22 57° NW 20:27:33 26° NNE
Cosmos 1939 Rocket 4.4 20:27:48 26° NNW 20:27:48 26° NNW 20:29:35 10° NNW
CZ-2C R/B 4.4 20:27:40 43° S 20:27:40 43° S 20:30:55 10° SSW
CZ-2D R/B 4.4 20:30:29 36° NNW 20:30:29 36° NNW 20:32:52 10° NNW
Cosmos 614 Rocket 3.9 20:24:56 10° WNW 20:30:07 68° NNE 20:30:14 68° NNE
Cosmos 1953 4.3 20:28:03 10° NNW 20:29:34 21° N 20:29:34 21° N
Cosmos 1674 Rocket 4.2 20:27:52 10° SW 20:32:06 51° NW 20:33:02 42° NNW
Cosmos 676 Rocket 3.9 20:27:48 10° WNW 20:33:02 74° NNE 20:33:08 73° NE
Cosmos 1943 Rocket 2.1 20:27:49 10° SW 20:33:28 67° SE 20:33:42 66° SE
Cosmos 1850 Rocket 4.0 20:30:32 10° WNW 20:35:45 64° NNE 20:35:52 64° NNE
ERS-2 4.4 20:33:51 10° SSW 20:36:59 26° W 20:40:09 10° NW
CZ-4B R/B 4.2 20:38:44 11° NNW 20:38:44 11° NNW 20:39:21 10° NNW
NOSS 3-1 (C) 4.1 20:32:14 10° SW 20:38:14 44° SSE 20:38:58 43° SE
Spot 2 Rocket 3.4 20:38:04 76° SSE 20:38:29 89° E 20:43:38 10° NNW
Cosmos 1503 Rocket 4.1 20:33:32 10° W 20:38:42 63° NNW 20:39:07 60° NNE
SPOT 5 4.0 20:40:22 31° N 20:40:22 31° N 20:43:05 10° NNW
Cosmos 1709 Rocket 3.9 20:33:00 10° NNW 20:39:12 65° ENE 20:39:38 63° E
Cosmos 1378 Rocket 4.0 20:35:00 10° SW 20:39:26 60° WNW 20:39:58 55° NNW
ERS-1 Rocket 3.5 20:40:56 46° N 20:40:56 46° N 20:44:54 10° NNW
Cosmos 2058 Rocket 3.7 20:36:38 10° NNW 20:39:47 47° NNW 20:39:47 47° NNW
Cosmos 1812 3.7 20:39:06 10° SW 20:42:33 47° WNW 20:42:33 47° WNW
SJ-6B 3.5 20:44:00 57° WSW 20:44:00 57° WSW 20:48:05 10° NNW
CZ-2C R/B 4.3 20:45:30 26° N 20:45:30 26° N 20:48:43 10° NW
Cosmos 968 Rocket 3.6 20:42:16 10° WSW 20:47:34 70° NNW 20:47:56 67° N
Geosat 3.9 20:47:35 79° N 20:47:41 80° N 20:52:44 10° W
NOAA 11 4.1 20:49:02 71° NE 20:49:02 71° NE 20:54:21 10° NNW
SPOT 1/Viking Rocket 4.3 20:52:10 41° N 20:52:10 41° N 20:56:09 10° NNW
Meteor 2-13 Rocket 4.3 20:45:06 10° NNW 20:51:17 69° ENE 20:51:23 69° ENE
MetOp-A 4.4 20:52:03 57° NNE 20:52:03 57° NNE 20:56:40 10° NNW
Cosmos 1606 Rocket 4.0 20:47:06 10° NNW 20:51:01 60° WNW 20:51:01 60° WNW
Resurs 1-3 4.1 20:53:05 55° NW 20:53:05 55° NW 20:56:37 10° NNW
Meteor 1-19 Rocket 4.1 20:46:44 10° SSW 20:52:24 78° ESE 20:52:24 78° ESE
ALOS 3.9 20:48:31 10° SSW 20:52:46 33° W 20:57:03 10° NNW
Okean 3 4.4 20:50:26 10° SW 20:54:30 45° NW 20:54:43 45° NW
Cosmos 1486 Rocket 4.3 20:50:40 10° W 20:55:57 60° N 20:55:59 60° N
Cosmos 2263 Rocket 2.6 20:52:07 10° WNW 20:57:34 54° SW 20:58:33 48° S
ATLAS 2AS CENTAUR R/B 3.9 20:54:02 10° SSW 20:59:24 32° SSE 20:59:24 32° SSE
Timation 1 Rocket 4.2 20:55:34 10° WNW 21:01:38 80° SSW 21:01:58 77° SSE
COSMOS 2455 3.3 20:56:57 10° W 21:02:47 51° SSW 21:03:38 48° S
Cosmos 1741 Rocket 4.2 20:59:15 10° WNW 21:04:05 65° NNW 21:04:05 65° NNW
Cosmos 2074 Rocket 4.2 21:02:00 10° NNW 21:07:32 54° NNE 21:07:32 54° NNE
Cosmos 1386 Rocket 4.5 21:02:35 10° NNW 21:08:54 84° WSW 21:10:13 59° S
SL-16 R/B 3.6 21:08:52 29° NNE 21:11:16 39° NNW 21:16:58 10° W
USA 229 DEB 4.1 21:05:04 10° WSW 21:11:41 49° S 21:12:08 48° SSE
Cosmos 1954 Rocket 4.2 21:06:31 10° WNW 21:11:02 67° NW 21:11:02 67° NW
USA 229 4.1 21:05:10 10° WSW 21:11:48 49° S 21:12:14 48° SSE
Cosmos 407 Rocket 3.7 21:08:28 10° NW 21:13:04 69° WNW 21:13:04 69° WNW
NOSS 3-1 (A) 4.1 21:08:50 10° SW 21:14:30 45° S 21:14:30 45° S
H-2A R/B 2.9 21:16:48 40° N 21:16:48 40° N 21:20:04 10° NNW
Cosmos 2369 Rocket 2.2 21:12:35 10° WSW 21:17:40 73° WSW 21:17:40 73° WSW
Resurs 01 Rocket 2.6 21:20:06 46° WNW 21:20:06 46° WNW 21:23:35 10° NNW
Envisat 3.5 21:18:42 54° SW 21:19:14 57° WSW 21:24:18 10° NNW
Cosmos 2292 Rocket 4.3 21:16:55 10° NNW 21:22:35 66° WNW 21:22:35 66° WNW
Cosmos 2263 4.3 21:18:05 10° WSW 21:23:09 70° SW 21:23:09 70° SW
SME Rocket 4.2 21:25:14 45° NW 21:25:14 45° NW 21:28:58 10° NNW
Cosmos 2279 Rocket 4.3 21:21:11 10° SW 21:27:25 63° WNW 21:31:34 22° NNE
Cosmos 1140 Rocket 3.9 21:22:50 10° NW 21:26:58 58° NW 21:26:58 58° NW
Cosmos 1745 Rocket 4.2 21:23:30 10° NNW 21:29:36 65° W 21:31:21 46° SSW
Terra 3.4 21:34:28 27° N 21:34:28 27° N 21:36:52 10° NNW
Cosmos 2184 Rocket 4.3 21:27:10 10° NNW 21:32:16 56° N 21:32:16 56° N
Cosmos 1190 Rocket 4.5 21:28:17 10° NW 21:32:40 58° W 21:32:40 58° W
Cosmos 1777 Rocket 4.5 21:28:56 10° WSW 21:33:20 58° WNW 21:33:20 58° WNW
Cosmos 2278 Rocket 2.5 21:36:42 10° WNW 21:41:31 64° W 21:41:31 64° W
CENTAUR R/B 4.4 21:36:36 10° WNW 21:42:44 29° SW 21:46:33 20° S
SL-19 R/B 4.5 21:43:30 79° W 21:43:30 79° W 21:49:42 10° NNW
Cosmos 1844 4.1 21:44:24 10° WNW 21:49:16 59° W 21:49:16 59° W
H-2A R/B 4.3 21:53:07 20° NNW 21:53:07 20° NNW 21:54:49 10° NNW
Cosmos 1844 Rocket 3.3 21:50:15 10° WNW 21:54:43 52° W 21:54:43 52° W
Cosmos 2297 4.3 21:55:50 10° WNW 22:00:20 56° WNW 22:00:20 56° WNW
ARGOS 4.0 22:04:26 46° NW 22:04:26 46° NW 22:08:12 10° NNW
Cosmos 1943 Rocket 3.2 22:11:30 10° W 22:15:13 43° W 22:15:13 43° W
ERS-1 Rocket 4.4 22:20:57 34° NW 22:20:57 34° NW 22:23:51 10° NNW
Cosmos 1709 Rocket 4.5 22:18:35 10° NNW 22:24:18 57° W 22:24:18 57° W
Cosmos 2263 Rocket 3.9 22:36:09 10° WNW 22:40:15 25° WSW 22:40:15 25° WSW
COSMOS 2455 4.4 22:42:43 10° WNW 22:46:46 28° WSW 22:46:46 28° WSW
ATLAS 2AS CENTAUR R/B 4.3 22:43:12 10° SW 22:46:52 28° SW 22:46:52 28° SW
SL-16 R/B 3.7 22:53:57 35° N 22:53:57 35° N 22:59:25 10° WNW
H-2A R/B 3.9 22:57:25 26° NW 22:57:25 26° NW 22:59:41 10° NNW
Resurs 01 Rocket 4.2 22:57:40 18° WNW 22:57:40 18° WNW 22:59:54 10° NW
Cosmos 2369 Rocket 3.8 22:56:47 10° W 22:59:27 29° W 22:59:27 29° W
Terra 4.2 23:13:21 20° NNW 23:13:21 20° NNW 23:14:46 10° NNW
Cosmos 2278 Rocket 4.0 23:20:49 10° WNW 23:23:22 26° WNW 23:23:22 26° WNW
